Location: Emory University Observatory
(33.7903°N, 84.3267°W)
Time: 09:02:27
(UTC-04:00)

Tiangong 1 - Pass Details

Date: 12 October 2017
Orbit: 294 x 320 km, 42.8° (Epoch: 18 October)

Event Time Altitude Azimuth Distance (km) Brightness Sun altitude
Rises 19:41:53 0° 304° (NW) 2,041 5.7 -8.1°
Reaches altitude 10° 19:44:35 10° 335° (NNW) 1,204 3.9 -8.6°
Maximum altitude 19:46:00 13° 6° (N) 1,040 3.2 -8.9°
Drops below altitude 10° 19:47:24 10° 38° (NE) 1,196 3.2 -9.2°
Enters shadow 19:47:48 - 45° (NE) 1,287 3.3 -9.3°
